ポイマンスキー彗星

C/2006 A1 ( Pojmanski )

English version
Home page
Updated on February 4, 2007

---------------------------------------------------------------------

・ プロフィール

発見日 2006年1月1日
発見光度 12.5等
発見者 Grzegorz Pojmanski (Warsaw University Astronomical Observatory)

・ 写真集

・ 軌道要素

Epoch 2006 Mar. 6.0 TT = JDT 2453800.5
T 2006 Feb. 22.18158 TT                                 MPC
q   0.5553965            (2000.0)            P               Q
z  +0.0004167      Peri.  351.18786     -0.84018545     -0.15537510
 +/-0.0000108      Node   211.34279     -0.41646339     -0.42878217
e   0.9997686      Incl.   92.73593     -0.34734228     +0.88994631
>From 170 observations 2006 Jan. 4-Mar. 8, mean residual 0".55.

・ 星図

・ 光度変化

        m1 =  8.6 + 5 logΔ + 20.0 log r  [   ,-27]  (              〜2006年 1月26日)
        m1 =  7.5 + 5 logΔ +  7.5 log r  [-27, 40]  (2006年 1月26日〜2006年 4月 3日)
        m1 =  7.4 + 5 logΔ + 15.0 log r  [ 40, 80]  (2006年 4月 3日〜2006年 5月13日)
        m1 = 11.5 + 5 logΔ + 10.0 log r  [ 80,   ]  (2006年 5月13日〜              )

---------------------------------------------------------------------

軌道要素はM.P.E.C. 2006-E43に掲載されたものです。
星図は StellaNavigator Ver.2.0 for Windows (アストロアーツ 編著 / アスキー出版局刊) で作成したものです。
光度グラフはComet for Windowsで作成したものです。

---------------------------------------------------------------------

Copyright(C) Seiichi Yoshida (comet@aerith.net). All rights reserved.